"Pseudo-MPEC" for C0ALZ92

Created 2019 Mar 17 18:18:11 UT using Find_Orb

Click here for an explanation of pseudo-MPECs

 
 Astrometry: 
     C0ALZ92  C2019 03 15.33782 12 31 48.08 -14 12 28.2    ~3F93 19.8 GVNEOCPG96
     C0ALZ92  C2019 03 15.34902 12 31 55.11 -14 12 23.3    ~3F93 19.7 GVNEOCPG96
     C0ALZ92  C2019 03 15.35463 12 31 58.64 -14 12 20.9    ~3F93 19.7 GVNEOCPG96
     C0ALZ92  C2019 03 15.45607 12 33 03.26 -14 11 23.5    ~3FBI 20.1 GVNEOCPG96
     C0ALZ92  C2019 03 15.45636 12 33 03.45 -14 11 23.0    ~3FBI 19.7 GVNEOCPG96
     C0ALZ92  C2019 03 15.45814 12 33 04.65 -14 11 21.9    ~3FBI 20.1 GVNEOCPG96
     C0ALZ92  C2019 03 15.45843 12 33 04.84 -14 11 21.7    ~3FBI 20.1 GVNEOCPG96
     C0ALZ92 KC2019 03 16OKEnKAncH@10`D6e5rY@D[PZk?hk.qAstrometryp-i3d2v2SbvmH21
     C0ALZ92 KC2019 03 16;]EL4n/BeY*Tw=r0m*=Uda8v\QBQ5w-N;AB%ca^Go\gF2q=Aw')jH21
     C0ALZ92 KC2019 03 160H=^c^[hv'#l=B3cT_Zu6;Xredacted;LRV#f6K^N4vcWR`^V,UxH21
     C0ALZ92 KC2019 03 16oGnOsF+SILCt0Lb`5s9O1I[fG/^-gjh\7\f1\qd+CbY-4vHIoaS[L01
     C0ALZ92 KC2019 03 16reP`!hwgSY_=?\YxDmtlqD-J%q8\6@TUqnV9EDl%]cx?CP=6K/-IL01
     C0ALZ92 KC2019 03 16#:)1oK9Ko+*Rn\Lk3i(^Sia#UiclickE%QsZ4h4nmMsc2Xo[:uLML01
     C0ALZ92 KC2019 03 16u-otf!w_5e'J3tQ,]dd-yY(K,G4L?fRoMHC9#@R8_YbrSnYk2wR1L01
     C0ALZ92 IC2019 03 16iUjAJ=CnVFh._(A!Tuog@'er8u,)lhShere[DDWH;Tpr!9Z:uVoOL01
     C0ALZ92 KC2019 03 17C91OB$rO9pMJriYi;Z\ONW+C`6bWacm*Y4x7,M*U/txh=9yB*0N'H21
     C0ALZ92 KC2019 03 17*0ccDaT*h8`wG[uiRhk,1O_WA#!$)..nqKlXYwq]xsrsbKb.WM]MH21
     C0ALZ92 KC2019 03 17M#[ut`g,?a6_cN2LSN40!q8forgfa1'4^+I3Y/f(?'ruf\IRb#'vH21
     C0ALZ92  C2019 03 17.28779 12 58 04.95 -13 49 16.2    ~3H7m 19.7 GVNEOCPG96
     C0ALZ92  C2019 03 17.29299 12 58 09.18 -13 49 12.0    ~3H7m 19.3 GVNEOCPG96
     C0ALZ92  C2019 03 17.29816 12 58 13.43 -13 49 07.2    ~3H7m 19.3 GVNEOCPG96
     C0ALZ92  C2019 03 17.30333 12 58 17.59 -13 49 02.4    ~3H7m 19.1 GVNEOCPG96
     C0ALZ92 KC2019 03 17t';.?1RY@,yKuFW$y?[o.b6Xv0_7?X7P0JK=J'B*wQ3UP,6V!l(wH36
     C0ALZ92 KC2019 03 17BbYlgPpIM!KJR9%\Eo8Ga0eD-Y]xdom,1RSWI*$M.0fglf\^gwn,H36
     C0ALZ92  C2019 03 17.36687 12 59 09.02 -13 48 00.9    ~3H9I 19.0 GVNEOCPI52
     C0ALZ92  C2019 03 17.36729 12 59 09.39 -13 48 00.0    ~3H9I 18.9 GVNEOCPI52
     C0ALZ92  C2019 03 17.36771 12 59 09.76 -13 48 00.3    ~3H9I 18.8 GVNEOCPI52
     C0ALZ92 KC2019 03 17M!5_'Al8jnBHuPXexplanation=J(S.IQWUL3@+AIXB8q#Yc$18LH36

Station data:
(G96) Mt. Lemmon Survey  (N32.442754 W110.788720)  US/Arizona.  Observers B.
   M. Africano, E. J. Christensen, G. A. Farneth, D. C. Fuls, A. R. Gibbs, A.
   D. Grauer, H. Groeller, J. A. Johnson, R. A. Kowalski, S. M. Larson, G. J.
   Leonard, R. L. Seaman, F. C. Shelly. 1.5-m reflector + 10K CCD.
(H21) Astronomical Research Observatory, Westfield  (N39.483057 W87.968270)
   US/Illinois. 0.76-m f/3.0 astrograph + CCD.
(H36) Sandlot Observatory, Scranton  (N38.797693 W95.706400)  US/Kansas.
   Observer G. Hug. 0.56-m reflector + CCD.
(I52) Steward Observatory, Mt. Lemmon Station  (N32.442547 W110.788920)
   US/Arizona.  Observers B. M. Africano, E. J. Christensen, G. A. Farneth,
   D. C. Fuls, A. R. Gibbs, A. D. Grauer, H. Groeller, J. A. Johnson, R. A.
   Kowalski, S. M. Larson, G. J. Leonard, R. L. Seaman, F. C. Shelly. 1.0-m
   reflector + CCD.
(L01) Višnjan Observatory, Tičan  (N45.290900 E13.749300)  Croatia.
   Observers K. Korlević, E. Pettarin. Measurer E. Pettarin. 1.0-m f/2.9
   reflector + CCD.

Orbital elements:  C0ALZ92
   Perihelion 2019 Apr 21.016826 +/- 0.0148 TT =  0:24:13 (JD 2458594.516826)
Epoch 2019 Mar 17.0 TT = JDT 2458559.5   Earth MOID: 0.0116   Ma: 0.0469
M 334.90230476 +/- 0.020            (J2000 ecliptic)          AutoNEOCP
n   0.71673244 +/- 0.000446         Peri.   33.81410 +/- 0.017
a   1.23660597 +/- 0.000513         Node   180.21537 +/- 0.0014
e   0.2000292 +/- 0.000339          Incl.    3.62949 +/- 0.0050
P   1.38/502.27d           H 26.1   G  0.15   U  7.6  
q 0.98924854 +/- 3.26e-5    Q 1.48396339 +/- 0.00104
From 28 observations 2019 Mar. 15-17; mean residual 0".32
Residuals in arcseconds: 
190315 G96  .17-  .01+    190316 L01  .00   .43+    190317 G96  .63+  .14-    
190315 G96  .05+  .06+    190316 L01  .08+  .25+    190317 G96  .07+  .05+    
190315 G96  .24+  .07-    190316 L01  .45-  .14+    190317 H36  .06-  .33+    
190315 G96  .32-  .29-    190316 L01  .26-  .19+    190317 H36  .76+  .48+    
190315 G96  .32-  .02+    190316 L01  .34-  .45+    190317 I52  .39-  .43-    
190315 G96  .21+  .08-    190317 H21  .13+  .31-    190317 I52  .04+  .02+    
190315 G96  .21+  .08-    190317 H21  .07+  .27-    190317 I52  .47+  .72-    
190316 H21  .11+  .01+    190317 H21  .28+  .07-    190317 H36  1.2-  .34+    
190316 H21  .17+  .04+    190317 G96  .02-  .10-    
190316 H21  .13+  .03+    190317 G96  .05-  .40-    

Ephemerides (geocentric):
Date (UTC) HH   RA              Dec         delta   r     elong  mag " sig PA
---- -- -- --  -------------   -----------  ------ ------ -----  --- ---- ---
2019 03 17 18  13 05 06.567   -13 37 24.28  .03082 1.0231 155.6 19.7 .341   1
2019 03 17 19  13 05 46.402   -13 36 33.40  .03074 1.0231 155.5 19.7 .343   3
2019 03 17 20  13 06 26.431   -13 35 41.79  .03066 1.0230 155.5 19.7 .346   4
2019 03 17 21  13 07 06.657   -13 34 49.47  .03058 1.0229 155.4 19.7 .348   6
2019 03 17 22  13 07 47.079   -13 33 56.41  .03050 1.0228 155.3 19.6 .351   7
2019 03 17 23  13 08 27.698   -13 33 02.60  .03042 1.0228 155.2 19.6 .355   9
2019 03 18 00  13 09 08.516   -13 32 08.05  .03035 1.0227 155.1 19.6 .359  10
2019 03 18 01  13 09 49.532   -13 31 12.75  .03027 1.0226 155.0 19.6 .363  12
2019 03 18 02  13 10 30.747   -13 30 16.68  .03019 1.0225 154.9 19.6 .368  14
2019 03 18 03  13 11 12.162   -13 29 19.85  .03011 1.0224 154.9 19.6 .373  15
2019 03 18 04  13 11 53.778   -13 28 22.24  .03004 1.0224 154.8 19.6 .379  17
2019 03 18 05  13 12 35.596   -13 27 23.85  .02996 1.0223 154.7 19.6 .385  19
2019 03 18 06  13 13 17.615   -13 26 24.67  .02988 1.0222 154.6 19.6 .392  21
2019 03 18 07  13 13 59.836   -13 25 24.70  .02981 1.0221 154.5 19.6 .400  22
2019 03 18 08  13 14 42.261   -13 24 23.92  .02973 1.0221 154.4 19.6 .408  24
2019 03 18 09  13 15 24.890   -13 23 22.32  .02966 1.0220 154.3 19.6 .417  26
2019 03 18 10  13 16 07.723   -13 22 19.92  .02958 1.0219 154.2 19.6 .427  28
2019 03 18 11  13 16 50.761   -13 21 16.68  .02951 1.0218 154.1 19.6 .437  29
2019 03 18 12  13 17 34.005   -13 20 12.61  .02943 1.0217 154.0 19.6 .448  31
2019 03 18 13  13 18 17.454   -13 19 07.71  .02936 1.0217 153.9 19.6 .460  33
2019 03 18 14  13 19 01.111   -13 18 01.95  .02929 1.0216 153.8 19.6 .472  34
2019 03 18 15  13 19 44.974   -13 16 55.35  .02921 1.0215 153.7 19.6 .486  36
2019 03 18 16  13 20 29.046   -13 15 47.88  .02914 1.0214 153.6 19.6 .500  38
2019 03 18 17  13 21 13.326   -13 14 39.54  .02907 1.0214 153.5 19.6 .515  39
2019 03 18 18  13 21 57.814   -13 13 30.32  .02900 1.0213 153.4 19.6 .530  41
2019 03 18 19  13 22 42.512   -13 12 20.22  .02892 1.0212 153.3 19.6 .547  42
2019 03 18 20  13 23 27.420   -13 11 09.23  .02885 1.0211 153.2 19.6 .564  43
2019 03 18 21  13 24 12.538   -13 09 57.34  .02878 1.0211 153.1 19.6 .582  45
2019 03 18 22  13 24 57.867   -13 08 44.55  .02871 1.0210 153.0 19.6 .601  46
2019 03 18 23  13 25 43.407   -13 07 30.84  .02864 1.0209 152.9 19.6 .621  47
2019 03 19 00  13 26 29.158   -13 06 16.21  .02857 1.0208 152.7 19.6 .642  49
2019 03 19 01  13 27 15.122   -13 05 00.65  .02850 1.0207 152.6 19.6 .663  50
2019 03 19 02  13 28 01.298   -13 03 44.16  .02843 1.0207 152.5 19.6 .686  51
2019 03 19 03  13 28 47.687   -13 02 26.72  .02836 1.0206 152.4 19.6 .709  52
2019 03 19 04  13 29 34.289   -13 01 08.33  .02829 1.0205 152.3 19.6 .733  53
2019 03 19 05  13 30 21.104   -12 59 48.98  .02822 1.0204 152.2 19.6 .758  54
2019 03 19 06  13 31 08.134   -12 58 28.67  .02815 1.0204 152.1 19.6 .783  55
2019 03 19 07  13 31 55.378   -12 57 07.38  .02808 1.0203 151.9 19.6 .810  56
2019 03 19 08  13 32 42.836   -12 55 45.12  .02801 1.0202 151.8 19.6 .837  57
2019 03 19 09  13 33 30.509   -12 54 21.86  .02795 1.0201 151.7 19.6 .865  57
2019 03 19 10  13 34 18.397   -12 52 57.61  .02788 1.0201 151.6 19.6 .895  58
2019 03 19 11  13 35 06.501   -12 51 32.35  .02781 1.0200 151.5 19.6 .925  59
2019 03 19 12  13 35 54.820   -12 50 06.09  .02775 1.0199 151.3 19.6 .955  60
2019 03 19 13  13 36 43.355   -12 48 38.80  .02768 1.0198 151.2 19.6 .987  60
2019 03 19 14  13 37 32.105   -12 47 10.50  .02761 1.0198 151.1 19.6 1.02  61
2019 03 19 15  13 38 21.072   -12 45 41.15  .02755 1.0197 150.9 19.5 1.05  62
2019 03 19 16  13 39 10.256   -12 44 10.77  .02748 1.0196 150.8 19.5 1.09  62
2019 03 19 17  13 39 59.655   -12 42 39.34  .02742 1.0195 150.7 19.5 1.12  63